Location: Antioch Church
(34.9543°N, 88.5145°W)
Time: 21:12:08
(UTC+00:00)

Cosmos 2263 Rocket - Pass Details

Date: 11 December 2019
Orbit: 824 x 848 km, 71.0° (Epoch: 26 January)

Event Time Altitude Azimuth Distance (km) Brightness Sun altitude
Exits shadow 11:27:17 17° 245° (WSW) 1,972 3.7 -16.8°
Maximum altitude 11:30:46 32° 298° (WNW) 1,379 2.8 -16.1°
Drops below altitude 10° 11:35:43 10° 1° (N) 2,429 4.4 -15.2°
Sets 11:38:25 0° 11° (NNE) 3,364 5.3 -14.6°
